Location: Santa Barbara
(34.4500°N, 119.7700°W)
Time: 00:23:39
(UTC-07:00)

Cosmos 1892 Rocket - Visible Passes

Search period start: 20 September 2017 00:00
Search period end: 30 September 2017 00:00
Orbit: 605 x 634 km, 82.5° (Epoch: 19 September)

Date Brightness Start Highest point End Pass type
(mag) Time Alt. Az. Time Alt. Az. Time Alt. Az.
20 Sep 6.5 06:19:42 10° SE 06:23:12 23° E 06:26:41 10° NE visible
23 Sep 7.0 05:36:28 10° ESE 05:38:29 13° E 05:40:30 10° ENE visible
24 Sep 6.1 05:52:16 10° SE 05:55:54 25° E 05:59:30 10° NE visible
25 Sep 4.6 06:09:09 10° S 06:13:23 51° E 06:17:38 10° NNE visible
26 Sep 3.5 06:26:36 10° S 06:30:59 76° W 06:35:21 10° N visible
27 Sep 6.8 05:08:51 10° ESE 05:11:10 14° E 05:13:28 10° NE visible
28 Sep 5.8 05:24:52 10° SSE 05:28:35 28° E 05:32:17 10° NNE visible
29 Sep 4.3 05:41:49 10° S 05:46:06 56° E 05:50:21 10° NNE visible
